Weather History for Litchfield, MN

Change the Weather History Date:

Thursday, December 5, 2013

  Actual Average Record
Temperature  
Mean Temperature 3 °F -  
Max Temperature 8 °F 30 °F 50 °F (1960)
Min Temperature -2 °F 13 °F -12 °F (1984)
Degree Days  
Heating Degree Days 62    
Moisture  
Dew Point -1 °F    
Average Humidity 81    
Maximum Humidity 92    
Minimum Humidity 72    
Precipitation  
Precipitation 0.00 in - - ()
Sea Level Pressure  
Sea Level Pressure 30.05 in    
Wind  
Wind Speed 16 mph (WNW)    
Max Wind Speed 22 mph    
Max Gust Speed 30 mph    
Visibility 8 miles    
Events      
Averages and records for this station are not official NWS values.
T = Trace of Precipitation, MM = Missing Value Source: NWS Daily Summary

Daily Weather History Graph

Daily Weather History Graph

Search for Another Location

Airport:

Trip Planner

Search our weather history database for the weather conditions in past years. The results will help you decide how hot, cold, wet, or windy it might be!

Date:

Astronomy

Dec. 05, 2013 Rise Set
Actual Time 7:41 AM CST 4:36 PM CST
Civil Twilight 7:07 AM CST 5:09 PM CST
Nautical Twilight 6:30 AM CST 5:46 PM CST
Astronomical Twilight 5:55 AM CST 6:22 PM CST
Moon 9:58 AM CST (12/5) 8:02 PM CST (12/5)
Length of Visible Light 10h 02m
Length of Day
8h 55m
Waxing Crescent, 11% of the Moon is Illuminated
Dec 5
Waxing Crescent
Dec 9
First Quarter
Dec 17
Full
Dec 25
Last Quarter
Jan 1
New

Hourly Weather History & Observations

Time (CST) Temp. Windchill Dew Point Humidity Pressure Visibility Wind Dir Wind Speed Gust Speed Precip Events Conditions
12:13 AM 8.6 °F -11.0 °F 6.8 °F 92% 29.72 in 4.0 mi West 20.7 mph 27.6 mph N/A   Overcast
12:33 AM 8.6 °F -10.5 °F 6.8 °F 92% 29.74 in 4.0 mi West 19.6 mph 26.5 mph N/A   Overcast
12:53 AM 8.6 °F -10.0 °F 5.0 °F 85% 29.75 in 5.0 mi West 18.4 mph 26.5 mph N/A   Overcast
1:13 AM 8.6 °F -10.5 °F 5.0 °F 85% 29.76 in 5.0 mi West 19.6 mph 26.5 mph N/A   Overcast
1:33 AM 8.6 °F -11.0 °F 3.2 °F 79% 29.77 in 5.0 mi WNW 20.7 mph 29.9 mph N/A   Overcast
1:53 AM 6.8 °F -12.4 °F 3.2 °F 85% 29.77 in 5.0 mi WNW 18.4 mph 29.9 mph N/A   Overcast
2:13 AM 6.8 °F -12.4 °F 3.2 °F 85% 29.79 in 7.0 mi WNW 18.4 mph 25.3 mph N/A   Overcast
2:33 AM 6.8 °F -11.3 °F 3.2 °F 85% 29.80 in 5.0 mi West 16.1 mph 23.0 mph N/A   Overcast
2:53 AM 6.8 °F -12.9 °F 3.2 °F 85% 29.81 in 5.0 mi WNW 19.6 mph 28.8 mph N/A   Overcast
3:12 AM 6.8 °F -10.0 °F 3.2 °F 85% 29.83 in 7.0 mi WNW 13.8 mph 27.6 mph N/A   Overcast
3:33 AM 6.8 °F -12.4 °F 3.2 °F 85% 29.83 in 5.0 mi West 18.4 mph 27.6 mph N/A   Overcast
3:53 AM 6.8 °F -11.8 °F 3.2 °F 85% 29.84 in 7.0 mi WNW 17.3 mph 27.6 mph N/A   Overcast
4:12 AM 6.8 °F -12.9 °F 3.2 °F 85% 29.85 in 5.0 mi WNW 19.6 mph 27.6 mph N/A   Overcast
4:33 AM 6.8 °F -10.0 °F 3.2 °F 85% 29.87 in 5.0 mi West 13.8 mph 29.9 mph N/A   Overcast
4:53 AM 6.8 °F -11.8 °F 3.2 °F 85% 29.89 in 7.0 mi West 17.3 mph 23.0 mph N/A   Overcast
5:12 AM 6.8 °F -10.0 °F 1.4 °F 79% 29.90 in 7.0 mi West 13.8 mph 23.0 mph N/A   Overcast
5:33 AM 6.8 °F -12.4 °F 1.4 °F 79% 29.90 in 7.0 mi West 18.4 mph 24.2 mph N/A   Overcast
5:53 AM 5.0 °F -14.7 °F 1.4 °F 85% 29.91 in 4.0 mi West 18.4 mph 26.5 mph N/A   Overcast
6:12 AM 3.2 °F -15.9 °F -0.4 °F 85% 29.92 in 5.0 mi West 16.1 mph 26.5 mph N/A   Overcast
6:33 AM 3.2 °F -14.6 °F -0.4 °F 85% 29.94 in 7.0 mi West 13.8 mph 23.0 mph N/A   Overcast
6:53 AM 3.2 °F -15.3 °F -0.4 °F 85% 29.94 in 7.0 mi West 15.0 mph 25.3 mph N/A   Overcast
7:12 AM 3.2 °F -14.6 °F -2.2 °F 78% 29.96 in 10.0 mi West 13.8 mph 24.2 mph N/A   Overcast
7:33 AM 3.2 °F -13.9 °F -0.4 °F 85% 29.97 in 10.0 mi West 12.7 mph 19.6 mph N/A   Overcast
7:53 AM 3.2 °F -12.2 °F -2.2 °F 78% 29.98 in 10.0 mi West 10.4 mph 18.4 mph N/A   Overcast
8:13 AM 3.2 °F -14.6 °F -0.4 °F 85% 29.99 in 10.0 mi West 13.8 mph 18.4 mph N/A   Overcast
8:32 AM 1.4 °F -18.2 °F -2.2 °F 85% 30.00 in 4.0 mi West 16.1 mph 24.2 mph N/A   Overcast
8:53 AM 3.2 °F -13.1 °F -0.4 °F 85% 30.02 in 4.0 mi West 11.5 mph 18.4 mph N/A   Overcast
9:12 AM 3.2 °F -15.3 °F -2.2 °F 78% 30.03 in 4.0 mi West 15.0 mph 20.7 mph N/A   Haze
9:33 AM 3.2 °F -14.6 °F -2.2 °F 78% 30.05 in 4.0 mi West 13.8 mph 23.0 mph N/A   Haze
9:53 AM 3.2 °F -16.5 °F -2.2 °F 78% 30.06 in 7.0 mi West 17.3 mph 23.0 mph N/A   Overcast
10:12 AM 3.2 °F -13.9 °F -2.2 °F 78% 30.07 in 7.0 mi West 12.7 mph 21.9 mph N/A   Overcast
10:33 AM 3.2 °F -17.6 °F -2.2 °F 78% 30.08 in 7.0 mi West 19.6 mph 23.0 mph N/A   Overcast
10:53 AM 3.2 °F -17.6 °F -2.2 °F 78% 30.08 in 7.0 mi West 19.6 mph 24.2 mph N/A   Overcast
11:13 AM 3.2 °F -15.9 °F -0.4 °F 85% 30.08 in 10.0 mi West 16.1 mph 23.0 mph N/A   Overcast
11:32 AM 5.0 °F -14.7 °F -0.4 °F 78% 30.08 in 7.0 mi West 18.4 mph 27.6 mph N/A   Overcast
11:53 AM 5.0 °F -14.7 °F -0.4 °F 78% 30.09 in 7.0 mi WNW 18.4 mph 25.3 mph N/A   Overcast
12:13 PM 5.0 °F -14.7 °F -0.4 °F 78% 30.09 in 5.0 mi West 18.4 mph 24.2 mph N/A   Haze
12:32 PM 6.8 °F -13.8 °F -0.4 °F 72% 30.09 in 7.0 mi WNW 21.9 mph 26.5 mph N/A   Mostly Cloudy
12:53 PM 6.8 °F -11.3 °F -0.4 °F 72% 30.09 in 7.0 mi WNW 16.1 mph 27.6 mph N/A   Overcast
1:13 PM 6.8 °F -10.7 °F -0.4 °F 72% 30.10 in 3.0 mi West 15.0 mph 21.9 mph N/A   Haze
1:32 PM 6.8 °F -10.0 °F -0.4 °F 72% 30.10 in 10.0 mi West 13.8 mph 20.7 mph N/A   Overcast
1:53 PM 6.8 °F -10.7 °F -0.4 °F 72% 30.10 in 10.0 mi WNW 15.0 mph 21.9 mph N/A   Mostly Cloudy
2:13 PM 6.8 °F -11.3 °F -0.4 °F 72% 30.10 in 7.0 mi WNW 16.1 mph 21.9 mph N/A   Mostly Cloudy
2:32 PM 6.8 °F -11.3 °F -0.4 °F 72% 30.11 in 7.0 mi West 16.1 mph 23.0 mph N/A   Overcast
2:53 PM 6.8 °F -11.3 °F -0.4 °F 72% 30.11 in 7.0 mi West 16.1 mph 21.9 mph N/A   Overcast
3:13 PM 6.8 °F -10.7 °F -0.4 °F 72% 30.12 in 10.0 mi West 15.0 mph 18.4 mph N/A   Mostly Cloudy
3:32 PM 5.0 °F -11.6 °F -0.4 °F 78% 30.13 in 10.0 mi West 12.7 mph 18.4 mph N/A   Mostly Cloudy
3:53 PM 5.0 °F -12.3 °F -0.4 °F 78% 30.13 in 10.0 mi West 13.8 mph 20.7 mph N/A   Mostly Cloudy
4:13 PM 3.2 °F -15.3 °F -0.4 °F 85% 30.14 in 10.0 mi West 15.0 mph 21.9 mph N/A   Mostly Cloudy
4:32 PM 3.2 °F -15.9 °F -0.4 °F 85% 30.14 in 10.0 mi West 16.1 mph 19.6 mph N/A   Mostly Cloudy
4:53 PM 3.2 °F -13.9 °F -0.4 °F 85% 30.15 in 10.0 mi WNW 12.7 mph 17.3 mph N/A   Mostly Cloudy
5:13 PM 3.2 °F -13.1 °F -0.4 °F 85% 30.16 in 10.0 mi WNW 11.5 mph - N/A   Scattered Clouds
5:32 PM 3.2 °F -12.2 °F -2.2 °F 78% 30.16 in 10.0 mi WNW 10.4 mph 18.4 mph N/A   Scattered Clouds
5:53 PM 3.2 °F -10.3 °F -0.4 °F 85% 30.18 in 10.0 mi West 8.1 mph - N/A   Clear
6:12 PM 3.2 °F -10.3 °F -2.2 °F 78% 30.19 in 10.0 mi WNW 8.1 mph - N/A   Clear
6:33 PM 3.2 °F -12.2 °F -2.2 °F 78% 30.20 in 10.0 mi West 10.4 mph - N/A   Clear
6:52 PM 3.2 °F -12.2 °F -2.2 °F 78% 30.21 in 10.0 mi WNW 10.4 mph 19.6 mph N/A   Clear
7:13 PM 1.4 °F -13.5 °F -2.2 °F 85% 30.23 in 10.0 mi WNW 9.2 mph - N/A   Clear
7:33 PM 1.4 °F -15.3 °F -2.2 °F 85% 30.24 in 10.0 mi West 11.5 mph 17.3 mph N/A   Scattered Clouds
7:52 PM 1.4 °F -9.9 °F -2.2 °F 85% 30.25 in 10.0 mi West 5.8 mph - N/A   Clear
8:13 PM 1.4 °F -13.5 °F -4.0 °F 78% 30.26 in 10.0 mi WNW 9.2 mph - N/A   Clear
8:33 PM 1.4 °F -14.5 °F -4.0 °F 78% 30.26 in 10.0 mi West 10.4 mph 16.1 mph N/A   Clear
8:52 PM 1.4 °F -15.3 °F -5.8 °F 72% 30.26 in 10.0 mi WNW 11.5 mph 17.3 mph N/A   Clear
9:13 PM -0.4 °F -17.6 °F -5.8 °F 78% 30.26 in 10.0 mi WNW 11.5 mph - N/A   Clear
9:33 PM -0.4 °F -17.6 °F -5.8 °F 78% 30.27 in 10.0 mi WNW 11.5 mph - N/A   Clear
9:52 PM -0.4 °F -15.7 °F -5.8 °F 78% 30.27 in 10.0 mi WNW 9.2 mph 16.1 mph N/A   Clear
10:13 PM -0.4 °F -17.6 °F -5.8 °F 78% 30.28 in 10.0 mi WNW 11.5 mph 17.3 mph N/A   Clear
10:33 PM -0.4 °F -14.7 °F -5.8 °F 78% 30.29 in 10.0 mi WNW 8.1 mph - N/A   Clear
10:52 PM -0.4 °F -15.7 °F -5.8 °F 78% 30.29 in 10.0 mi WNW 9.2 mph - N/A   Clear
11:13 PM -0.4 °F -15.7 °F -5.8 °F 78% 30.30 in 10.0 mi WNW 9.2 mph - N/A   Mostly Cloudy
11:33 PM -2.2 °F -18.0 °F -5.8 °F 85% 30.30 in 10.0 mi WNW 9.2 mph - N/A   Scattered Clouds
11:52 PM -2.2 °F -16.8 °F -5.8 °F 85% 30.31 in 10.0 mi WNW 8.1 mph - N/A   Clear